Regional Weather Roundup
Issued by NWS

Home | Current Version | Previous Version | Graphics & Text | Print | Product List | Glossary On
Versions: 1 2 3 4 5 6 7 8 9 10 11 12 13 14 15 16 17 18 19 20 21 22 23 24 25 26 27 28
000
ASUS45 KBOU 162307
RWRCO

WEATHER ROUNDUP FOR COLORADO
NATIONAL WEATHER SERVICE DENVER/BOULDER CO
400 PM MST MON JAN 16 2017

NOTE: "FAIR" INDICATES FEW OR NO CLOUDS BELOW 12000 FEET WITH NO
SIGNIFICANT WEATHER AND/OR OBSTRUCTIONS TO VISIBILITY.

COZ001>005-013-030-031-170000-
...NORTHWEST COLORADO...

CITY           SKY/WX    TMP DP  RH WIND       PRES   REMARKS
CRAIG          PTSUNNY   19  12  74 CALM      30.15R
HAYDEN         FAIR      18  10  73 W6        30.12S WCI   9
MEEKER         FAIR      27  15  61 CALM      30.10S
MOUNT WERNER   NOT AVBL
STEAMBOAT SPGS CLOUDY    19  16  86 CALM      30.10S
WALDEN           N/A     23  19  86 NE3       30.07R
$$

COZ006>008-011-170000-
...WEST CENTRAL VALLEYS...

CITY           SKY/WX    TMP DP  RH WIND       PRES   REMARKS
GRAND JUNCTION FAIR      43  20  39 VRB3      30.06R
MONTROSE       CLOUDY    35  22  58 CALM      30.07S
EAGLE          SUNNY     36  25  64 CALM      30.03S
RIFLE          FAIR      35  20  54 SW3       30.07R
DELTA          CLOUDY    40  30  67 CALM      30.07R
NUCLA          FAIR      37  21  52 N6        30.05R
$$

COZ017>023-064>068-170000-
...SOUTHWEST COLORADO...

CITY           SKY/WX    TMP DP  RH WIND       PRES   REMARKS
DURANGO        LGT SNOW  33  30  88 SE7       29.99R FOG     WCI  27
CORTEZ         MIX PCPN  36  33  89 SE6       29.99R FOG
PAGOSA SPRINGS LGT SNOW  33  33  99 S3        30.00R VSB 3/4
TELLURIDE      CLOUDY    29  25  85 W3        30.00R
WOLF CREEK PAS CLOUDY    21  21 100 N3        30.07R
$$

COZ009-010-012-014-032>034-037-058>063-170000-
...CENTRAL COLORADO...

CITY           SKY/WX    TMP DP  RH WIND       PRES   REMARKS
ASPEN          PTSUNNY   32  25  75 N6        30.00R WCI  26
BUENA VISTA    CLOUDY    34  25  69 E6        30.03R WCI  29
COPPER MTN     CLOUDY    25  19  80 CALM      30.04R
BERTHOUD PASS  NOT AVBL
COTTONWOOD PAS LGT SNOW  30  28  93 E7        30.03R WCI  23
GUNNISON       MIX PCPN  30  25  81 CALM      30.02R
KREMMLING      FAIR      37  28  70 E5        30.04S
LEADVILLE      CLOUDY    25  22  88 S8        30.00R FOG     WCI  16
MONARCH PASS   CLOUDY    21  18  86 MISG      30.11R
SALIDA         CLOUDY    34  32  93 SE6       30.10R WCI  29
SUNLIGHT       FAIR      21  19  93 NE5       30.06S FOG     WCI  15
WILKERSON PASS CLOUDY   N/A N/A N/A NE6       30.06R FOG
$$

COZ069>075-170000-
...SAN LUIS VALLEY/SANGRE DE CRISTO MOUNTAINS...

CITY           SKY/WX    TMP DP  RH WIND       PRES   REMARKS
ALAMOSA        LGT SNOW  31  31 100 SE12      30.00R VSB 1   WCI  22
LA VETA PASS   SNOW      23  21  93 SW12G17   30.04R VSB 1/2 WCI  12
SAGUACHE       MIX PCPN  32  32 100 CALM      30.01R
$$

COZ035-036-038>040-170000-
...NORTHERN COLORADO FRONT RANGE...

CITY           SKY/WX    TMP DP  RH WIND       PRES   REMARKS
DENVER INTL AP MOCLDY    35  25  66 W7        30.07R WCI  29
DMNS CITY PARK   N/A     35  28  76 S5        30.08R WCI  30
AURORA         NOT AVBL
FRONT RANGE AP CLOUDY    36  30  80 W7        30.07R
ERIE MUNI ARPT CLOUDY    37  29  72 CALM      30.08R
BOULDER MUN AP CLOUDY    36  27  69 CALM      30.07S
CENTENNIAL     CLOUDY    32  26  78 W6        30.07R WCI  26
BROOMFIELD     CLOUDY    36  25  64 CALM      30.08R
FORT COLLINS   CLOUDY    39  16  38 NE5       30.08R
LONGMONT       CLOUDY    40  30  66 CALM      30.10R
$$

COZ041-046-047-076>085-087-088-170000-
...PIKES PEAK/PALMER DIVIDE AND SOUTHERN FOOTHILLS...

CITY           SKY/WX    TMP DP  RH WIND       PRES   REMARKS
COLO. SPRINGS  CLOUDY    33  23  66 NW20      30.05R WCI  21
A. F. ACADEMY  FAIR      32  23  69 N16       30.05R WCI  21
SCHRIEVER AFB  NOT AVBL
ELLICOTT       LGT RAIN N/A N/A N/A N21       30.03R
FALCON         CLOUDY    30  23  73 NW12G21   30.05R WCI  21
FORT CARSON    CLOUDY    36  27  69 NE12      30.06R
LIMON          CLOUDY    30  29  96 N18       30.05R WCI  18
MONUMENT HILL  CLOUDY    27  23  86 NW10      30.07R WCI  17
TRINIDAD       SNOW      32  29  88 N8        30.08R VSB 1/4 WCI  25
$$

COZ042>045-048>051-090-091-170000-
...NORTHEAST COLORADO...

CITY           SKY/WX    TMP DP  RH WIND       PRES   REMARKS
GREELEY ARPT   CLOUDY    38  21  50 NE3       30.09R
AKRON          CLOUDY    34  21  59 N13       30.05  WCI  25
BURLINGTON     CLOUDY    33  30  88 N18       30.01R WCI  22
WRAY           NOT AVBL
STERLING       CLOUDY    36  27  69 N5        30.05R
HOLYOKE        MOCLDY    37  28  70 NW10G16   30.04R
FORT MORGAN    CLOUDY    36  22  56 MISG      30.07R
$$

COZ086-089-092>099-170000-
...SOUTHEAST COLORADO...

CITY           SKY/WX    TMP DP  RH WIND       PRES   REMARKS
PUEBLO         CLOUDY    39  29  67 NE13      30.07R
LA JUNTA       LGT SNOW  34  31  88 NW10      30.08R FOG     WCI  26
LAMAR          LGT SNOW  35  30  82 N13G21    30.03R WCI  26
SPRINGFIELD      N/A     32  31  96 NW20      30.02R WCI  20
$$




USA.gov is the U.S. government's official web portal to all federal, state and local government web resources and services.